Location: Nairn
(57.5833°N, 3.8667°W)
Time: 21:19:30
(UTC+00:00)

Altair - Pass Details

Date: 07 October 2022
Orbit: 1501 x 1682 km, 47.2° (Epoch: 05 December)

Event Time Altitude Azimuth Distance (km) Brightness Sun altitude
Exits shadow 02:58:17 11° 168° (SSE) 3,676 9.2 -27.8°
Maximum altitude 03:03:32 18° 133° (SE) 3,222 9.2 -27.2°
Drops below altitude 10° 03:09:34 10° 95° (E) 3,886 10.2 -26.6°
Sets 03:14:01 0° 78° (ENE) 4,903 11.2 -26.1°
